S-NET A

导读

S-NET A是德国于2018年2月1日北京时间8点成功发射的卫星,作为德国航天领域微小卫星技术探索的成果,属于S-NET系列卫星项目组成部分,承载技术验证相关试验任务,主要用于相关航天技术的在轨测试,为德国后续微小卫星组网、空间技术发展积累了宝贵的在轨运行数据与实践经验,推动欧洲微小卫星技术的发展进步。

Basic Information
目录编号:
43188
目录名称:
S-NET A
国际标识:
2018-014J
轨道中心:
EARTH
卫星名称:
S-NET A
卫星全名:
--
卫星状态:
在轨 (已飞行3137 天)
发射日期:
2018-02-01 UTC
国别 :
德国 (DE)
星等 :
--
Orbit Information
数据来源 国际轨道数据
星历时间: 2026-09-04T11:39:18+0800
11小时前
查看轨道信息
半长轴: 6892.115km
偏心率: 0.0010394
轨道倾角: 97.528°
近地点辐角 98.707°
升交点赤经 151.659°
平近点角 261.534°
近地点: 506.814km
远地点: 521.142km
周期: 94.905分钟
每日圈数: 15.173089
Detailed Information
使用方式:
暂无
2D Orbit Map
3D Orbit Map
Orbit Altitude Analysis Chart
Orbit Inclination Analysis Chart
Orbit Comprehensive Analysis Chart
View Comprehensive Chart
Conjunction Data List
Event ID Objects TCA Miss Dist (km) Collision Risk Probability Collision Risk Index (CRI) Action
CDM_260906-235304-318806-667921
S-NET A (43188)
LILIUM-2 (66679)
2026-09-06T
23:53:42+0000
1.387 km
极远距离
8.807147E-6 低风险 0.54
CDM_260906-151304-318805-341221
S-NET A (43188)
2026-09-06T
15:13:05+0000
2.404 km
极远距离
1.800537E-6 低风险 0.4
CDM_260904-181604-318806-844422
S-NET A (43188)
2026-09-04T
18:16:42+0000
2.964 km
极远距离
8.730543E-7 极低风险 0.34